Volver al catálogo

STARLINK-32891

ActivoComunicacionesVLEO
NORAD 62927·PAYLOAD·🇺🇸 United States

Lanzado Feb 8, 2025 desde Cape Canaveral Space Force Station

Loading…

Próximos Pases (próximas 24 horas)

TLE

ActualizadoSource: CelesTrak SupGP

Época: Sep 14, 2026, 21:22 UTC

1 62927C 25027W   26257.89076389 -.00094905  00000+0 -34369-2 0  2576
2 62927  43.0008 140.6052 0001528 268.5092 152.9204 15.27630547    13

Sigue STARLINK-32891 en tiempo real con AllMySat

Download on the App Store